Location: Poughquag
(41.6090°N, 73.6820°W)
Time: 00:27:41
(UTC-04:00)

ISS - Pass Details

Date: 24 May 2019
Orbit: 407 x 418 km, 51.6° (Epoch: 27 June)

Event Time Altitude Azimuth Distance (km) Brightness Sun altitude
Rises 01:11:47 0° 308° (NW) 2,367 0.5 -27.5°
Reaches altitude 10° 01:13:56 10° 314° (NW) 1,502 -0.5 -27.5°
Enters shadow 01:14:20 13° 316° (NW) 1,351 -0.8 -27.5°
